Coolidge Muni, Coolidge, AZ

11:34 AM MST on December 08, 2019 (GMT -0700)
Coolidge Muni, Coolidge

Weather History for KP08 - September, 2019

Change the Weather History Date:

Sunday, September 29, 2019

  Actual Average (KCGZ) Record (KCGZ)
Temperature  
Mean Temperature 80 °F -  
Max Temperature 93 °F 92 °F 102 °F (2000)
Min Temperature 68 °F 63 °F 55 °F (2013)
Cooling Degree Days 16    
Growing Degree Days 30 (Base 50)    
Moisture  
Dew Point 50 °F    
Average Humidity 38    
Maximum Humidity 68    
Minimum Humidity 16    
Precipitation  
Precipitation 0.00 in - - ()
Sea Level Pressure  
Sea Level Pressure 29.76 in    
Wind  
Wind Speed 7 mph ()    
Max Wind Speed 21 mph    
Max Gust Speed 28 mph    
Visibility 10.0 miles    
Events      
Averages and records for this station are not official NWS values.
T = Trace of Precipitation, MM = Missing Value Source: Averaged Metar Reports

Daily Weather History Graph

Daily Weather History Graph

Search for Another Location

Airport or City:

Astronomy

Sep. 29, 2019 Rise Set
Actual Time 6:18 AM MST 6:13 PM MST
Civil Twilight 5:53 AM MST 6:37 PM MST
Nautical Twilight 5:25 AM MST 7:06 PM MST
Astronomical Twilight 4:56 AM MST 7:35 PM MST
Moon 7:13 AM MST (9/29) 7:18 PM MST (9/29)
Length of Visible Light 12h 43m
Length of Day
11h 54m
New Moon, 2% of the Moon is Illuminated
Sep 29
New Moon
Oct 5
First Quarter
Oct 13
Full
Oct 21
Last Quarter
Oct 27
New

Hourly Weather History & Observations

Time (MST) Temp. Heat Index Dew Point Humidity Pressure Visibility Wind Dir Wind Speed Gust Speed Precip Events Conditions
12:15 AM 77.0 °F - 53.6 °F 44% 29.75 in 10.0 mi South 6.9 mph - N/A   Clear
12:35 AM 77.0 °F - 53.6 °F 44% 29.74 in 10.0 mi South 8.1 mph - N/A   Clear
12:55 AM 75.2 °F - 55.4 °F 50% 29.74 in 10.0 mi South 9.2 mph - N/A   Clear
1:15 AM 75.2 °F - 55.4 °F 50% 29.74 in 10.0 mi SSE 6.9 mph - N/A   Clear
1:35 AM 75.2 °F - 55.4 °F 50% 29.74 in 10.0 mi SE 4.6 mph - N/A   Clear
1:55 AM 73.4 °F - 55.4 °F 53% 29.74 in 10.0 mi East 4.6 mph - N/A   Clear
2:15 AM 75.2 °F - 55.4 °F 50% 29.74 in 10.0 mi SSE 6.9 mph - N/A   Clear
2:35 AM 73.4 °F - 55.4 °F 53% 29.73 in 10.0 mi SE 5.8 mph - N/A   Clear
2:55 AM 75.2 °F - 55.4 °F 50% 29.73 in 10.0 mi South 8.1 mph - N/A   Clear
3:15 AM 75.2 °F - 55.4 °F 50% 29.74 in 10.0 mi ENE 3.5 mph - N/A   Clear
3:35 AM 73.4 °F - 57.2 °F 57% 29.74 in 10.0 mi ESE 5.8 mph - N/A   Clear
3:55 AM 73.4 °F - 57.2 °F 57% 29.75 in 10.0 mi Calm Calm - N/A   Clear
4:15 AM 73.4 °F - 57.2 °F 57% 29.75 in 10.0 mi ESE 4.6 mph - N/A   Clear
4:35 AM 75.2 °F - 57.2 °F 53% 29.76 in 10.0 mi Calm Calm - N/A   Clear
4:55 AM 71.6 °F - 57.2 °F 60% 29.77 in 10.0 mi West 5.8 mph - N/A   Clear
5:15 AM 69.8 °F - 57.2 °F 64% 29.77 in 10.0 mi Calm Calm - N/A   Clear
5:35 AM 71.6 °F - 57.2 °F 60% 29.77 in 10.0 mi Calm Calm - N/A   Clear
5:55 AM 69.8 °F - 57.2 °F 64% 29.77 in 10.0 mi SE 3.5 mph - N/A   Clear
6:15 AM 68.0 °F - 57.2 °F 68% 29.78 in 10.0 mi ESE 6.9 mph - N/A   Clear
6:35 AM 69.8 °F - 57.2 °F 64% 29.78 in 10.0 mi SE 6.9 mph - N/A   Clear
6:55 AM 69.8 °F - 57.2 °F 64% 29.79 in 10.0 mi ESE 6.9 mph - N/A   Clear
7:15 AM 73.4 °F - 59.0 °F 61% 29.80 in 10.0 mi East 4.6 mph - N/A   Clear
7:35 AM 75.2 °F - 59.0 °F 57% 29.80 in 10.0 mi ESE 4.6 mph - N/A   Clear
7:55 AM 77.0 °F - 59.0 °F 54% 29.81 in 10.0 mi Calm Calm - N/A   Clear
8:15 AM 78.8 °F - 57.2 °F 47% 29.81 in 10.0 mi Calm Calm - N/A   Clear
8:35 AM 80.6 °F 80.8 °F 57.2 °F 45% 29.82 in 10.0 mi SW 8.1 mph - N/A   Clear
8:55 AM 80.6 °F 80.8 °F 57.2 °F 45% 29.82 in 10.0 mi WSW 6.9 mph 13.8 mph N/A   Clear
9:15 AM 80.6 °F 80.5 °F 55.4 °F 42% 29.83 in 10.0 mi SW 9.2 mph 15.0 mph N/A   Clear
9:35 AM 80.6 °F 80.5 °F 55.4 °F 42% 29.83 in 10.0 mi SW 6.9 mph - N/A   Clear
9:55 AM 82.4 °F 81.7 °F 55.4 °F 39% 29.83 in 10.0 mi WSW 10.4 mph - N/A   Clear
10:15 AM 82.4 °F 81.4 °F 53.6 °F 37% 29.83 in 10.0 mi South 9.2 mph 15.0 mph N/A   Clear
10:35 AM 84.2 °F 82.8 °F 53.6 °F 35% 29.82 in 10.0 mi SW 10.4 mph - N/A   Clear
10:55 AM 84.2 °F 82.8 °F 53.6 °F 35% 29.81 in 10.0 mi SSW 5.8 mph 13.8 mph N/A   Clear
11:15 AM 84.2 °F - 51.8 °F 33% 29.81 in 10.0 mi SW 12.7 mph - N/A   Clear
11:35 AM 86.0 °F - 51.8 °F 31% 29.80 in 10.0 mi SW 10.4 mph 19.6 mph N/A   Clear
11:55 AM 87.8 °F - 48.2 °F 25% 29.79 in 10.0 mi SSE 9.2 mph 18.4 mph N/A   Clear
12:15 PM 87.8 °F - 48.2 °F 25% 29.78 in 10.0 mi SW 8.1 mph 15.0 mph N/A   Clear
12:35 PM 89.6 °F - 48.2 °F 24% 29.78 in 10.0 mi SW 10.4 mph 17.3 mph N/A   Clear
12:55 PM 87.8 °F - 48.2 °F 25% 29.77 in 10.0 mi SSW 11.5 mph - N/A   Clear
1:15 PM 89.6 °F - 48.2 °F 24% 29.76 in 10.0 mi SSW 10.4 mph 17.3 mph N/A   Clear
1:35 PM 89.6 °F - 48.2 °F 24% 29.75 in 10.0 mi Calm Calm 16.1 mph N/A   Clear
1:55 PM 89.6 °F - 48.2 °F 24% 29.74 in 10.0 mi South 8.1 mph 17.3 mph N/A   Clear
2:15 PM 91.4 °F - 44.6 °F 20% 29.74 in 10.0 mi WSW 11.5 mph 23.0 mph N/A   Clear
2:35 PM 91.4 °F - 42.8 °F 18% 29.73 in 10.0 mi SW 13.8 mph 19.6 mph N/A   Clear
2:55 PM 93.2 °F - 41.0 °F 16% 29.73 in 10.0 mi SW 18.4 mph 27.6 mph N/A   Clear
3:15 PM 91.4 °F - 42.8 °F 18% 29.73 in 10.0 mi SSW 18.4 mph 24.2 mph N/A   Clear
3:35 PM 91.4 °F - 39.2 °F 16% 29.72 in 10.0 mi SSW 18.4 mph 25.3 mph N/A   Clear
3:55 PM 91.4 °F - 42.8 °F 18% 29.72 in 10.0 mi SW 18.4 mph 24.2 mph N/A   Clear
4:15 PM 91.4 °F - 42.8 °F 18% 29.72 in 10.0 mi SSW 20.7 mph - N/A   Clear
4:35 PM 91.4 °F - 44.6 °F 20% 29.71 in 10.0 mi SW 16.1 mph 24.2 mph N/A   Clear
4:55 PM 91.4 °F - 46.4 °F 21% 29.71 in 10.0 mi WSW 18.4 mph 25.3 mph N/A   Clear
5:15 PM 89.6 °F - 46.4 °F 22% 29.71 in 10.0 mi SW 16.1 mph 25.3 mph N/A   Clear
5:35 PM 89.6 °F - 46.4 °F 22% 29.71 in 10.0 mi SW 16.1 mph 24.2 mph N/A   Clear
5:55 PM 87.8 °F - 46.4 °F 24% 29.71 in 10.0 mi SW 13.8 mph - N/A   Clear
6:15 PM 86.0 °F - 44.6 °F 23% 29.72 in 10.0 mi SW 15.0 mph 21.9 mph N/A   Clear
6:35 PM 86.0 °F - 46.4 °F 25% 29.72 in 10.0 mi SW 15.0 mph - N/A   Clear
6:55 PM 84.2 °F - 44.6 °F 25% 29.72 in 10.0 mi SW 11.5 mph - N/A   Clear
7:15 PM 84.2 °F - 42.8 °F 23% 29.73 in 10.0 mi SW 10.4 mph - N/A   Clear
7:35 PM 80.6 °F - 44.6 °F 28% 29.74 in 10.0 mi SSW 6.9 mph - N/A   Clear
7:55 PM 80.6 °F - 44.6 °F 28% 29.75 in 10.0 mi SW 5.8 mph - N/A   Clear
8:15 PM 80.6 °F - 42.8 °F 26% 29.75 in 10.0 mi South 5.8 mph - N/A   Clear
8:35 PM 78.8 °F - 42.8 °F 28% 29.76 in 10.0 mi South 6.9 mph - N/A   Clear
8:55 PM 77.0 °F - 42.8 °F 29% 29.76 in 10.0 mi South 6.9 mph - N/A   Clear
9:15 PM 77.0 °F - 44.6 °F 32% 29.77 in 10.0 mi South 8.1 mph - N/A   Clear
9:30 PM 75.2 °F - 44.6 °F 34% 29.77 in 10.0 mi South 6.9 mph - N/A   Clear
9:55 PM 75.2 °F - 44.6 °F 34% 29.77 in 10.0 mi South 9.2 mph - N/A   Clear
10:15 PM 75.2 °F - 46.4 °F 36% 29.77 in 10.0 mi South 6.9 mph - N/A   Clear
10:35 PM 73.4 °F - 46.4 °F 38% 29.78 in 10.0 mi South 5.8 mph - N/A   Clear
10:55 PM 73.4 °F - 46.4 °F 38% 29.78 in 10.0 mi SSW 6.9 mph - N/A   Clear
11:15 PM 71.6 °F - 46.4 °F 41% 29.78 in 10.0 mi South 6.9 mph - N/A   Clear
11:35 PM 71.6 °F - 46.4 °F 41% 29.79 in 10.0 mi South 8.1 mph - N/A   Clear
11:55 PM 71.6 °F - 48.2 °F 43% 29.79 in 10.0 mi SSW 6.9 mph - N/A   Clear